Total_Precipitation_Accumulation
1.03 1.07 1.09 1.05 1.02 1.01 0.97 0.91 0.96 1.02 0.99 1.00 1.16 1.22 1.28 1.37 1.57 1.83 2.00 2.01 1.94 1.94 1.90 1.97 2.15 2.24 2.46 2.42 2.32 2.21 2.07 1.92 1.80 1.60 1.38 1.22 1.27 1.33 1.44 1.53 1.52 1.42 1.25
1.11 1.16 1.10 1.01 0.96 0.96 0.93 0.84 0.82 0.78 0.76 0.86 0.98 1.02 1.07 1.11 1.30 1.58 1.77 1.82 1.81 1.73 1.70 1.81 2.02 2.20 2.41 2.51 2.45 2.28 2.19 2.05 1.94 1.88 1.69 1.48 1.35 1.40 1.53 1.62 1.58 1.51 1.43
1.15 1.06 1.00 0.94 0.85 0.81 0.72 0.66 0.72 0.72 0.78 0.88 0.95 1.00 1.02 1.07 1.12 1.22 1.38 1.50 1.49 1.45 1.48 1.55 1.58 1.78 2.07 2.25 2.26 2.28 2.31 2.27 2.23 2.07 1.87 1.75 1.60 1.48 1.58 1.63 1.61 1.65 1.51
1.27 1.19 1.08 0.97 0.87 0.83 0.74 0.65 0.63 0.66 0.75 0.84 0.88 0.95 1.02 1.06 1.07 1.08 1.10 1.16 1.16 1.23 1.30 1.33 1.37 1.43 1.66 1.84 1.92 2.11 2.34 2.36 2.37 2.28 2.04 1.88 1.76 1.62 1.68 1.80 1.86 1.82 1.67
1.27 1.26 1.12 0.96 0.85 0.80 0.77 0.68 0.66 0.65 0.66 0.75 0.80 0.80 0.84 0.94 1.03 1.07 0.94 0.90 0.98 1.09 1.11 1.06 1.07 1.17 1.31 1.43 1.48 1.83 2.18 2.38 2.37 2.30 2.13 2.03 1.80 1.67 1.53 1.56 1.76 2.00 1.98
1.14 1.12 0.92 0.76 0.64 0.59 0.62 0.63 0.62 0.60 0.64 0.70 0.68 0.69 0.78 0.80 0.96 0.96 0.81 0.79 0.84 0.94 1.02 0.98 0.86 0.84 0.90 1.00 1.09 1.26 1.53 1.78 2.07 2.26 2.15 1.94 1.72 1.64 1.61 1.63 1.67 1.81 1.98
0.79 0.77 0.68 0.57 0.54 0.58 0.61 0.57 0.58 0.60 0.60 0.62 0.62 0.61 0.64 0.77 0.82 0.68 0.68 0.72 0.79 0.84 0.90 0.95 0.85 0.73 0.81 0.86 0.97 1.06 1.05 1.13 1.43 1.79 1.91 1.82 1.89 1.78 1.75 1.69 1.66 1.74 1.81
0.52 0.54 0.50 0.48 0.49 0.53 0.54 0.54 0.62 0.67 0.65 0.65 0.67 0.65 0.63 0.70 0.70 0.57 0.63 0.65 0.69 0.75 0.84 0.93 0.96 0.88 0.87 0.98 0.98 1.02 0.96 0.91 1.13 1.15 1.32 1.62 1.79 1.88 1.85 1.94 2.09 2.04 1.90
0.23 0.24 0.26 0.26 0.29 0.31 0.32 0.38 0.50 0.58 0.61 0.66 0.71 0.71 0.64 0.62 0.67 0.57 0.58 0.62 0.66 0.71 0.74 0.81 0.89 0.85 1.00 1.10 1.08 1.20 1.18 1.05 1.18 1.26 1.31 1.37 1.49 1.64 1.76 1.82 1.89 1.95 1.93
0.13 0.14 0.17 0.19 0.18 0.18 0.22 0.27 0.33 0.34 0.40 0.51 0.54 0.56 0.60 0.58 0.75 0.65 0.63 0.63 0.69 0.79 0.82 0.80 0.95 0.96 1.06 1.04 0.99 1.22 1.23 1.11 1.03 1.09 1.10 1.10 1.05 1.16 1.39 1.54 1.75 1.85 1.82
0.17 0.20 0.20 0.20 0.21 0.22 0.24 0.26 0.28 0.28 0.33 0.37 0.40 0.45 0.52 0.61 0.76 0.76 0.78 0.75 0.79 0.92 0.90 0.82 0.78 0.91 0.80 0.88 0.92 0.93 1.15 1.16 1.05 1.11 1.13 1.06 1.02 1.03 1.09 1.23 1.49 1.71 1.77
0.17 0.19 0.21 0.22 0.23 0.24 0.25 0.28 0.31 0.31 0.30 0.31 0.32 0.36 0.43 0.50 0.59 0.67 0.68 0.72 0.80 0.88 0.92 0.81 0.79 0.88 0.72 0.70 0.72 0.82 1.01 1.13 1.09 1.13 1.13 1.09 1.00 0.95 0.99 1.07 1.18 1.28 1.34
0.17 0.18 0.21 0.23 0.23 0.21 0.23 0.27 0.29 0.31 0.32 0.33 0.36 0.40 0.46 0.51 0.54 0.55 0.53 0.56 0.62 0.69 0.72 0.77 0.78 0.76 0.70 0.65 0.66 0.75 0.83 0.92 1.08 1.12 1.05 1.02 0.94 0.90 0.94 0.98 1.06 1.13 1.19
0.18 0.20 0.21 0.21 0.21 0.21 0.22 0.24 0.26 0.29 0.32 0.36 0.41 0.45 0.50 0.53 0.54 0.53 0.57 0.60 0.58 0.58 0.58 0.58 0.60 0.64 0.67 0.64 0.64 0.69 0.76 0.87 0.96 0.96 0.91 0.88 0.92 0.96 1.02 1.06 1.11 1.14 1.20
0.18 0.19 0.19 0.19 0.20 0.21 0.21 0.22 0.23 0.24 0.31 0.40 0.45 0.49 0.48 0.47 0.46 0.49 0.59 0.67 0.74 0.78 0.82 0.73 0.71 0.72 0.69 0.65 0.62 0.64 0.70 0.78 0.81 0.76 0.76 0.74 0.75 0.83 0.90 0.96 1.05 1.08 1.11
0.22 0.20 0.18 0.18 0.19 0.19 0.20 0.21 0.23 0.25 0.31 0.34 0.35 0.37 0.37 0.39 0.42 0.44 0.49 0.59 0.68 0.82 0.96 0.94 0.95 0.96 0.91 0.81 0.71 0.64 0.61 0.64 0.69 0.75 0.76 0.74 0.72 0.75 0.83 0.86 0.94 0.99 0.99
0.20 0.21 0.19 0.19 0.19 0.20 0.21 0.22 0.25 0.24 0.22 0.24 0.27 0.29 0.35 0.45 0.51 0.55 0.58 0.63 0.65 0.79 0.96 0.98 0.98 0.97 0.89 0.83 0.81 0.72 0.65 0.62 0.64 0.68 0.70 0.73 0.76 0.78 0.85 0.88 0.87 0.90 0.93
0.17 0.18 0.19 0.22 0.23 0.24 0.27 0.30 0.33 0.36 0.34 0.27 0.25 0.26 0.29 0.38 0.44 0.51 0.61 0.72 0.71 0.78 0.87 0.88 0.88 0.76 0.68 0.65 0.62 0.60 0.56 0.56 0.58 0.59 0.59 0.64 0.70 0.74 0.80 0.89 0.92 0.90 0.90
0.13 0.16 0.19 0.26 0.31 0.30 0.33 0.38 0.39 0.35 0.31 0.31 0.29 0.28 0.29 0.34 0.37 0.41 0.52 0.68 0.69 0.65 0.60 0.57 0.56 0.55 0.53 0.55 0.56 0.54 0.53 0.51 0.50 0.52 0.53 0.58 0.65 0.70 0.75 0.80 0.88 0.93 0.92
0.12 0.16 0.19 0.24 0.28 0.29 0.31 0.35 0.36 0.36 0.34 0.36 0.37 0.39 0.40 0.40 0.42 0.45 0.48 0.54 0.53 0.48 0.46 0.45 0.43 0.45 0.49 0.52 0.56 0.59 0.59 0.57 0.56 0.57 0.60 0.65 0.68 0.72 0.78 0.85 0.92 0.97 0.95
0.15 0.18 0.21 0.23 0.24 0.25 0.28 0.31 0.34 0.36 0.37 0.38 0.38 0.42 0.48 0.50 0.49 0.51 0.55 0.56 0.54 0.52 0.51 0.51 0.49 0.47 0.51 0.55 0.60 0.64 0.65 0.66 0.66 0.66 0.68 0.74 0.79 0.80 0.82 0.91 1.00 1.02 1.04
0.18 0.20 0.21 0.24 0.25 0.25 0.29 0.34 0.38 0.37 0.36 0.37 0.38 0.42 0.50 0.53 0.51 0.50 0.52 0.55 0.57 0.58 0.60 0.62 0.61 0.56 0.56 0.61 0.68 0.71 0.74 0.75 0.74 0.74 0.75 0.78 0.83 0.83 0.84 0.92 1.02 1.06 1.10
0.23 0.25 0.27 0.28 0.29 0.29 0.31 0.36 0.39 0.38 0.37 0.39 0.40 0.42 0.46 0.51 0.51 0.51 0.52 0.52 0.54 0.57 0.60 0.64 0.67 0.65 0.60 0.62 0.71 0.78 0.82 0.81 0.80 0.82 0.89 0.92 0.90 0.89 0.89 0.92 0.96 1.02 1.05
0.26 0.30 0.34 0.36 0.36 0.36 0.37 0.40 0.42 0.40 0.41 0.43 0.44 0.45 0.46 0.50 0.49 0.48 0.50 0.52 0.57 0.60 0.62 0.65 0.67 0.66 0.63 0.65 0.70 0.77 0.82 0.83 0.81 0.84 0.89 0.98 1.00 0.99 1.01 1.04 1.08 1.09 1.14
0.28 0.31 0.34 0.37 0.37 0.38 0.39 0.42 0.44 0.42 0.43 0.46 0.47 0.47 0.49 0.52 0.53 0.53 0.55 0.55 0.59 0.63 0.63 0.65 0.69 0.69 0.69 0.68 0.69 0.75 0.90 0.94 0.90 0.89 0.90 0.97 1.01 1.03 1.09 1.18 1.26 1.29 1.32
0.26 0.29 0.33 0.38 0.40 0.41 0.42 0.44 0.45 0.47 0.48 0.48 0.49 0.52 0.54 0.56 0.56 0.56 0.58 0.59 0.60 0.62 0.63 0.65 0.67 0.69 0.72 0.76 0.78 0.85 0.92 0.88 0.86 0.91 0.92 0.99 1.05 1.06 1.09 1.15 1.18 1.22 1.26